Wind_Speed
4 7 6 8 16 16 21 17 14 15 15 13 22 20 19 16 15 16 17 17 17 16 17 17 17 18 15 18 18 18 20 20 19 20 18 18 16 15 17 17 19 20 21
5 6 6 3 16 16 20 22 21 19 18 14 23 22 22 18 18 18 18 17 17 16 17 17 17 16 17 18 18 19 19 18 18 18 16 15 13 13 15 15 15 17 19
7 4 2 3 16 19 21 15 17 17 17 16 21 22 22 22 18 19 16 17 16 17 17 17 16 17 17 17 18 18 18 17 16 16 15 13 12 12 13 14 14 16 17
8 4 3 5 8 14 20 17 18 17 14 14 18 20 24 21 17 16 16 16 15 15 16 16 17 16 17 17 18 18 17 15 14 14 14 12 11 11 11 13 15 17 19
7 5 4 6 4 15 19 18 19 19 11 12 21 27 25 19 16 15 15 15 15 14 15 16 16 16 17 17 17 17 15 13 12 11 12 11 11 9 10 13 15 16 17
8 5 3 5 12 13 23 21 17 12 11 21 27 25 16 15 11 14 14 15 14 15 16 15 16 16 16 16 15 14 12 11 10 9 9 9 9 8 8 11 13 13 14
7 3 5 6 11 17 19 25 25 26 27 24 23 22 18 20 13 12 13 15 16 16 16 15 14 14 15 15 14 13 11 10 9 8 7 8 8 8 7 8 10 11 12
13 6 7 7 10 13 16 19 22 24 24 22 19 20 18 14 12 11 13 14 14 16 16 14 14 13 14 14 14 13 11 8 8 6 4 6 7 7 8 6 7 8 9
15 10 7 9 10 12 11 18 19 23 24 23 20 16 15 18 13 11 12 12 13 14 15 14 13 13 12 12 12 11 9 6 6 5 3 4 7 8 9 7 5 5 6
22 11 11 8 9 10 13 15 18 19 15 20 17 12 13 10 10 11 12 12 12 13 14 14 13 13 12 12 10 9 8 7 6 6 4 2 5 8 9 8 5 4 5
26 17 9 8 7 9 10 13 16 17 16 21 17 15 16 16 15 15 13 12 13 12 13 13 13 14 13 12 11 9 8 8 8 7 6 5 4 6 8 8 5 3 3
27 21 12 9 7 7 10 10 12 16 18 18 16 15 16 15 14 14 13 13 12 12 12 12 13 12 12 11 11 10 10 9 9 8 7 6 4 4 5 8 5 3 2
25 25 20 12 8 7 6 9 10 11 16 19 17 15 13 12 13 13 13 13 14 14 13 13 14 13 12 10 11 11 10 9 9 9 8 7 6 4 3 4 5 3 3
20 22 19 18 11 8 7 7 10 11 14 18 18 22 18 14 13 12 12 12 13 14 14 13 13 13 13 12 13 12 10 9 9 8 8 7 6 5 3 5 3 3 3
14 17 21 20 15 11 7 3 7 11 14 15 17 17 20 17 17 15 15 14 13 12 12 13 13 13 12 13 12 12 12 11 10 9 9 7 7 5 3 5 3 2 3
10 12 14 17 18 16 9 5 2 4 9 15 18 19 20 20 19 17 17 16 15 14 12 12 13 14 13 13 13 13 13 12 12 11 10 9 8 6 6 6 5 3 3
5 7 8 10 13 17 16 9 3 1 3 14 14 19 21 22 21 20 19 17 16 16 16 15 15 14 16 16 15 15 16 15 14 14 12 12 11 10 8 8 8 7 6
9 4 6 9 11 13 15 16 9 5 3 3 6 18 21 23 23 20 19 19 19 18 18 18 18 18 19 19 18 18 17 17 15 15 15 15 13 13 12 12 12 11 10
11 8 5 5 7 8 10 12 13 9 6 1 1 5 6 21 21 23 22 20 18 19 20 20 21 21 21 21 19 19 19 19 18 17 17 18 17 16 17 16 15 15 14
17 14 6 4 3 3 4 6 9 10 8 3 3 1 1 6 21 19 18 18 18 19 22 22 21 21 22 22 22 22 21 21 19 20 20 20 20 19 17 18 17 17 17
12 17 14 9 7 6 4 2 1 4 7 7 2 2 3 2 8 14 13 12 15 18 20 21 22 24 24 25 25 24 24 24 23 23 23 23 22 21 19 20 20 19 19
19 20 19 18 16 12 10 11 7 4 5 5 5 2 1 3 7 10 10 9 10 11 14 17 20 22 24 25 25 27 25 25 25 26 26 24 25 24 23 23 21 21 22
25 24 27 26 25 23 17 16 13 10 8 7 4 1 1 1 3 6 8 9 8 9 11 13 17 20 22 25 26 26 28 27 30 30 27 24 24 24 26 29 27 24 23
32 26 30 29 28 29 26 22 20 17 16 13 11 7 5 2 2 2 4 7 8 9 11 13 16 21 22 24 25 27 28 29 31 32 30 27 26 26 27 28 26 26 25
28 33 33 34 32 35 29 30 24 23 21 20 17 14 12 9 5 4 4 5 7 9 11 14 18 21 24 24 24 25 28 28 31 31 31 30 28 26 24 24 24 26 29
37 39 41 41 40 40 36 33 31 25 26 24 20 21 18 15 10 9 7 7 8 9 11 13 15 17 21 24 25 24 27 26 26 27 28 29 27 28 27 27 29 31 31
Wind_Direction
52 67 74 190 200 193 188 184 181 188 176 157 153 153 147 145 143 142 140 139 135 134 130 129 131 128 117 120 125 127 128 124 120 114 111 104 99 94 88 85 84 83 82
35 68 49 103 198 185 187 201 190 190 188 172 158 157 153 160 149 152 146 147 141 142 133 133 131 126 123 127 131 133 124 124 120 116 108 100 94 89 85 85 86 84 83
30 52 80 142 175 190 185 196 185 186 187 170 168 165 161 161 162 146 152 149 145 142 138 139 134 135 132 135 133 135 130 128 126 122 110 99 90 85 81 83 87 87 85
38 44 79 81 161 182 185 189 179 193 182 180 186 181 162 164 156 155 159 153 148 148 141 139 140 140 143 142 139 140 135 136 131 123 111 102 90 81 78 87 90 89 87
39 53 71 85 140 190 184 175 190 175 174 204 188 173 169 155 162 160 158 158 156 155 148 142 145 148 149 148 145 144 143 142 134 124 115 107 95 90 84 101 99 92 88
40 58 92 94 84 102 159 166 170 169 179 191 175 146 148 152 161 160 160 161 158 161 153 149 148 154 155 149 150 148 147 147 135 124 121 110 100 95 95 111 105 96 90
65 85 121 118 91 89 109 132 148 137 140 136 141 153 153 159 169 155 157 154 160 161 161 156 151 157 157 155 153 154 154 148 135 132 132 121 112 102 97 115 109 99 93
40 131 137 142 130 111 103 130 134 132 139 140 145 153 157 170 150 161 160 160 159 161 163 159 158 159 163 160 158 159 157 156 146 151 163 152 137 122 112 122 115 97 97
38 114 139 143 147 141 131 125 149 144 146 149 148 148 158 167 168 161 163 160 159 160 167 162 165 169 171 166 166 168 165 170 161 172 190 211 161 133 120 128 118 92 90
46 86 127 127 151 147 142 142 140 148 151 167 138 146 161 165 167 176 165 166 155 159 169 174 172 177 176 179 176 175 181 177 184 180 189 216 180 139 126 132 130 97 80
51 65 99 109 133 156 151 147 152 152 155 154 164 166 167 171 173 177 172 163 155 163 167 177 181 186 183 189 188 188 194 195 201 188 176 172 197 154 138 136 135 120 80
52 65 71 84 96 132 163 164 158 166 168 171 183 182 175 170 167 172 171 165 161 164 174 176 184 193 196 194 199 184 186 193 194 191 173 178 191 167 155 143 147 151 125
51 62 69 75 87 96 131 172 175 174 180 182 187 186 195 195 184 180 173 171 174 174 176 181 187 188 186 188 198 193 188 197 199 196 182 176 182 192 224 189 168 191 179
51 57 67 67 68 81 111 147 184 194 192 195 203 206 194 194 199 198 192 187 184 183 186 185 187 195 190 192 198 193 189 199 206 210 209 198 209 221 228 257 203 211 226
54 57 59 59 64 67 67 116 166 198 206 209 206 206 203 209 207 210 209 204 201 195 197 195 191 199 199 200 200 200 197 199 212 214 226 225 219 216 216 273 281 269 272
66 68 62 59 58 57 74 81 143 186 217 223 219 213 211 209 209 216 219 216 215 203 201 207 205 200 201 210 206 206 213 207 215 220 224 225 231 228 223 240 264 278 282
102 67 63 64 60 61 60 71 109 197 257 219 228 228 222 218 213 215 218 220 223 217 216 212 210 211 209 211 214 212 216 217 222 225 228 231 225 226 235 249 261 265 271
161 137 81 70 71 62 57 49 67 80 98 173 236 232 221 223 222 220 219 220 222 221 217 219 217 215 217 216 216 222 227 225 224 234 236 238 231 241 237 242 256 261 264
193 181 157 101 71 57 45 43 39 65 79 97 21 47 221 227 224 225 228 228 231 234 226 225 223 223 225 224 221 221 226 234 231 235 238 245 247 243 250 252 251 263 267
187 180 189 155 127 74 26 39 33 40 55 73 114 245 331 211 220 219 225 229 230 233 235 236 236 236 236 234 231 230 230 232 237 238 242 246 252 252 255 264 265 265 269
207 186 180 188 205 169 211 256 65 10 21 30 65 106 179 114 157 204 223 233 238 242 247 247 243 240 239 239 237 234 233 237 240 244 246 249 251 257 258 260 262 264 265
275 192 199 200 202 213 200 215 206 228 314 342 16 45 122 156 184 191 202 207 219 230 241 243 243 241 240 240 242 241 236 236 240 243 247 253 257 260 258 259 262 265 266
265 241 214 214 209 212 213 215 211 210 239 265 265 161 136 158 198 195 195 200 216 238 242 243 246 245 241 243 242 242 239 233 236 240 243 250 254 257 256 255 258 262 267
258 249 233 235 223 223 220 224 210 216 213 239 240 237 228 192 210 226 228 224 226 245 252 251 249 247 246 244 241 240 240 235 237 240 242 246 251 254 256 255 257 262 262
233 249 238 230 241 244 223 232 228 210 228 221 237 240 235 232 225 245 258 255 259 261 265 263 263 260 253 249 245 248 242 244 241 239 241 240 243 245 253 255 253 254 257
242 241 236 236 234 236 231 233 236 226 234 238 233 235 236 233 232 243 260 280 281 283 282 285 281 265 258 251 246 245 245 239 242 244 246 250 251 254 256 258 258 259 260
Height
5870 5868 5869 5870 5872 5874 5877 5879 5881 5883 5887 5891 5892 5896 5899 5902 5904 5905 5908 5911 5914 5915 5916 5918 5919 5920 5921 5922 5925 5928 5929 5930 5932 5931 5931 5932 5932 5933 5932 5931 5930 5928 5927
5871 5869 5869 5868 5870 5873 5876 5879 5882 5885 5887 5891 5893 5897 5900 5903 5904 5906 5909 5912 5914 5917 5917 5919 5920 5922 5923 5925 5927 5930 5931 5932 5933 5934 5934 5935 5936 5935 5934 5934 5933 5931 5930
5872 5871 5869 5869 5870 5873 5875 5878 5881 5884 5888 5891 5894 5897 5900 5903 5905 5907 5910 5913 5915 5917 5918 5920 5921 5923 5925 5928 5929 5932 5933 5935 5936 5936 5936 5938 5938 5938 5937 5936 5936 5935 5934
5873 5873 5871 5868 5868 5871 5874 5877 5879 5884 5886 5890 5894 5897 5900 5904 5905 5908 5911 5914 5915 5918 5919 5921 5923 5925 5928 5930 5930 5933 5935 5937 5937 5938 5938 5940 5940 5940 5940 5939 5939 5938 5936
5875 5874 5873 5871 5870 5870 5873 5876 5879 5884 5887 5890 5894 5896 5900 5903 5906 5909 5912 5915 5917 5919 5921 5922 5925 5928 5930 5931 5933 5935 5937 5939 5940 5940 5940 5941 5942 5942 5943 5942 5941 5940 5939
5877 5876 5875 5874 5872 5870 5871 5874 5878 5883 5886 5890 5893 5897 5902 5905 5908 5910 5913 5916 5918 5921 5922 5924 5927 5930 5932 5932 5934 5936 5938 5940 5941 5942 5943 5943 5943 5944 5945 5944 5943 5942 5941
5877 5877 5878 5877 5874 5873 5871 5876 5879 5883 5887 5892 5894 5898 5903 5907 5909 5911 5914 5917 5918 5921 5924 5926 5927 5931 5932 5934 5935 5937 5940 5942 5942 5944 5944 5944 5944 5945 5946 5947 5945 5944 5943
5876 5877 5878 5879 5879 5877 5876 5878 5881 5885 5888 5892 5895 5899 5902 5906 5908 5911 5915 5916 5919 5921 5924 5927 5929 5932 5933 5935 5937 5939 5940 5942 5943 5945 5946 5945 5945 5946 5946 5947 5947 5947 5945
5873 5876 5879 5881 5882 5882 5882 5883 5884 5887 5890 5893 5895 5898 5903 5906 5909 5912 5914 5916 5919 5921 5924 5927 5929 5932 5935 5936 5938 5939 5941 5943 5943 5945 5946 5947 5946 5946 5946 5948 5948 5948 5947
5873 5875 5878 5880 5883 5884 5885 5886 5888 5890 5891 5893 5896 5900 5903 5907 5908 5911 5914 5916 5918 5920 5924 5927 5929 5932 5934 5937 5938 5939 5941 5942 5944 5945 5946 5948 5947 5946 5946 5947 5949 5949 5949
5876 5876 5879 5880 5883 5885 5887 5888 5890 5892 5894 5895 5898 5901 5904 5906 5909 5912 5913 5916 5917 5920 5923 5926 5928 5931 5933 5936 5937 5939 5940 5942 5943 5944 5945 5947 5948 5947 5946 5947 5948 5949 5949
5882 5879 5881 5882 5884 5886 5887 5889 5891 5893 5895 5898 5899 5901 5903 5905 5908 5910 5913 5916 5917 5920 5922 5925 5927 5930 5933 5935 5937 5938 5940 5941 5943 5944 5944 5945 5947 5947 5947 5946 5947 5948 5949
5888 5884 5883 5885 5885 5886 5888 5889 5891 5893 5895 5898 5900 5902 5903 5904 5907 5910 5912 5914 5916 5919 5921 5923 5926 5928 5931 5935 5937 5938 5939 5941 5943 5943 5944 5944 5946 5947 5947 5947 5946 5947 5948
5893 5890 5888 5886 5888 5887 5888 5890 5892 5894 5895 5897 5900 5902 5903 5905 5907 5909 5912 5914 5916 5917 5920 5922 5925 5927 5929 5933 5935 5936 5938 5941 5942 5943 5944 5943 5944 5945 5946 5947 5946 5946 5947
5896 5893 5892 5890 5889 5889 5889 5890 5891 5893 5895 5897 5898 5900 5903 5904 5906 5908 5910 5912 5915 5917 5920 5922 5923 5926 5928 5931 5934 5935 5937 5939 5941 5941 5942 5943 5943 5944 5945 5946 5946 5946 5946
5895 5894 5894 5893 5893 5891 5891 5891 5893 5893 5894 5895 5897 5899 5900 5902 5904 5906 5909 5911 5913 5915 5918 5921 5923 5925 5926 5929 5930 5932 5934 5936 5938 5939 5940 5941 5941 5942 5943 5944 5944 5945 5945
5894 5894 5894 5893 5894 5893 5892 5892 5892 5893 5892 5893 5895 5897 5899 5899 5901 5903 5906 5908 5911 5914 5917 5919 5921 5923 5925 5926 5927 5929 5931 5934 5936 5937 5938 5939 5939 5940 5941 5942 5943 5943 5943
5893 5894 5894 5894 5893 5894 5893 5892 5891 5890 5891 5892 5893 5893 5895 5897 5899 5900 5903 5906 5909 5910 5913 5915 5918 5920 5922 5923 5924 5926 5929 5931 5933 5935 5936 5937 5937 5938 5937 5939 5940 5940 5941
5890 5893 5893 5893 5894 5893 5894 5893 5891 5890 5890 5890 5890 5889 5890 5892 5894 5897 5900 5903 5905 5907 5909 5912 5914 5916 5917 5919 5921 5923 5925 5928 5929 5932 5933 5934 5935 5935 5935 5936 5937 5938 5939
5885 5888 5893 5893 5892 5893 5892 5892 5893 5892 5890 5890 5889 5888 5889 5888 5890 5893 5896 5900 5902 5904 5906 5908 5910 5912 5914 5916 5919 5921 5923 5924 5926 5928 5929 5930 5931 5932 5933 5934 5934 5934 5935
5889 5887 5888 5891 5891 5890 5891 5890 5892 5892 5891 5890 5889 5888 5888 5888 5888 5891 5893 5895 5898 5899 5902 5904 5905 5907 5909 5912 5915 5916 5919 5921 5922 5924 5926 5926 5927 5928 5928 5929 5929 5930 5930
5883 5884 5885 5884 5886 5887 5887 5888 5888 5889 5890 5890 5888 5888 5887 5887 5888 5889 5890 5892 5894 5895 5896 5898 5900 5902 5904 5907 5910 5911 5915 5917 5918 5918 5920 5922 5922 5923 5924 5924 5924 5925 5925
5878 5880 5878 5879 5880 5882 5882 5883 5885 5885 5887 5888 5887 5886 5887 5886 5887 5887 5887 5888 5889 5891 5892 5894 5895 5897 5899 5901 5903 5906 5908 5911 5910 5912 5914 5915 5916 5917 5918 5918 5919 5919 5920
5873 5873 5875 5875 5877 5878 5878 5879 5880 5881 5882 5884 5884 5885 5885 5886 5886 5886 5886 5886 5885 5886 5887 5888 5891 5891 5893 5894 5897 5898 5901 5903 5904 5906 5908 5909 5910 5910 5911 5912 5913 5914 5914
5862 5866 5867 5869 5870 5872 5874 5875 5876 5876 5878 5879 5881 5882 5883 5884 5884 5885 5885 5884 5884 5884 5884 5885 5885 5886 5887 5888 5890 5892 5894 5897 5898 5901 5902 5903 5903 5903 5905 5906 5906 5906 5906
5854 5855 5856 5859 5862 5864 5866 5868 5871 5872 5873 5875 5877 5879 5881 5881 5882 5883 5884 5883 5883 5882 5882 5881 5881 5881 5882 5882 5883 5885 5887 5889 5892 5894 5897 5898 5899 5899 5900 5901 5901 5900 5900